When you browse on this site, cookies collect data to enhance your experience and personalize the content and advertising you see.
Visit our Privacy Policy to learn more. By continuing to use the site, you agree to this use of cookies and data.

Tiempo cada hora Los Ángeles

Hoy, 4 Agosto, Martes

Tiempo Temperatura Precipitaciones Viento Presión Humedad
00:00 +9°C° 0 mm 0 mps 752 mmHg 91%
01:00 +9°C° 0 mm 0 mps 752 mmHg 91%
02:00 +9°C° 0 mm 0 mps 751 mmHg 91%
03:00 +8°C° 0 mm 0 mps 751 mmHg 90%
04:00 +8°C° 0 mm 0 mps 751 mmHg 90%
05:00 +8°C° 0 mm 0 mps 751 mmHg 88%
06:00 +9°C° 0 mm 0 mps 751 mmHg 87%
07:00 +9°C° 0 mm 0 mps 751 mmHg 85%
08:00 +10°C° 0 mm 0 mps 751 mmHg 82%
09:00 +11°C° 0 mm 0 mps 751 mmHg 79%
10:00 +13°C° 0 mm 1 mps 751 mmHg 76%
11:00 +14°C° 0 mm 1 mps 750 mmHg 77%
12:00 +15°C° 0 mm 1 mps 750 mmHg 77%
13:00 +16°C° 0 mm 2 mps 750 mmHg 77%
14:00 +16°C° 0 mm 2 mps 750 mmHg 78%
15:00 +16°C° 0 mm 2 mps 749 mmHg 79%
16:00 +16°C° 0 mm 2 mps 749 mmHg 80%
17:00 +14°C° 0 mm 1 mps 750 mmHg 85%
18:00 +12°C° 0 mm 1 mps 750 mmHg 90%
19:00 +11°C° 0 mm 1 mps 750 mmHg 95%
20:00 +11°C° 0 mm 1 mps 750 mmHg 96%
21:00 +10°C° 0 mm 1 mps 750 mmHg 96%
22:00 +10°C° 0 mm 1 mps 749 mmHg 97%
23:00 +10°C° 1.1 mm 1 mps 749 mmHg 97%

Mañana, 5 Agosto, Miércoles

Tiempo Temperatura Precipitaciones Viento Presión Humedad
00:00 +10°C° 1.1 mm 2 mps 749 mmHg 97%
01:00 +10°C° 1.1 mm 2 mps 749 mmHg 98%
02:00 +10°C° 0.5 mm 2 mps 749 mmHg 97%
03:00 +9°C° 0.5 mm 2 mps 749 mmHg 96%
04:00 +9°C° 0.5 mm 2 mps 750 mmHg 95%
05:00 +9°C° 0.1 mm 2 mps 750 mmHg 95%
06:00 +9°C° 0.1 mm 3 mps 751 mmHg 94%
07:00 +8°C° 0.1 mm 4 mps 751 mmHg 94%
08:00 +10°C° 0.3 mm 3 mps 752 mmHg 90%
09:00 +11°C° 0.3 mm 3 mps 753 mmHg 86%
10:00 +12°C° 0.3 mm 3 mps 754 mmHg 82%
11:00 +12°C° 0.3 mm 3 mps 754 mmHg 76%
12:00 +13°C° 0.3 mm 3 mps 755 mmHg 71%
13:00 +13°C° 0.3 mm 3 mps 755 mmHg 66%
14:00 +13°C° 0.1 mm 2 mps 755 mmHg 67%
15:00 +13°C° 0.1 mm 2 mps 756 mmHg 68%
16:00 +12°C° 0.1 mm 1 mps 756 mmHg 69%
17:00 +10°C° 0 mm 1 mps 757 mmHg 75%
18:00 +9°C° 0 mm 1 mps 757 mmHg 81%
19:00 +7°C° 0 mm 1 mps 758 mmHg 88%
20:00 +6°C° 0 mm 1 mps 758 mmHg 89%
21:00 +6°C° 0 mm 1 mps 759 mmHg 90%
22:00 +6°C° 0 mm 1 mps 759 mmHg 92%
23:00 +5°C° 0 mm 1 mps 759 mmHg 91%

Pasado mañana, 6 Agosto, Jueves

Tiempo Temperatura Precipitaciones Viento Presión Humedad
00:00 +4°C° 0 mm 2 mps 759 mmHg 91%
01:00 +4°C° 0 mm 2 mps 759 mmHg 91%
02:00 +3°C° 0 mm 2 mps 758 mmHg 89%
03:00 +2°C° 0 mm 3 mps 758 mmHg 88%
04:00 +2°C° 0 mm 3 mps 757 mmHg 86%
05:00 +2°C° 0 mm 3 mps 757 mmHg 85%
06:00 +2°C° 0 mm 3 mps 757 mmHg 84%
07:00 +1°C° 0 mm 4 mps 756 mmHg 83%
08:00 +4°C° 0 mm 4 mps 756 mmHg 76%
09:00 +6°C° 0 mm 5 mps 755 mmHg 70%
10:00 +7°C° 0 mm 5 mps 755 mmHg 63%
11:00 +8°C° 0 mm 5 mps 754 mmHg 61%
12:00 +9°C° 0 mm 5 mps 753 mmHg 59%
13:00 +10°C° 0 mm 5 mps 753 mmHg 57%
14:00 +10°C° 0 mm 5 mps 753 mmHg 60%
15:00 +9°C° 0 mm 5 mps 752 mmHg 63%
16:00 +8°C° 0 mm 5 mps 752 mmHg 66%
17:00 +7°C° 0 mm 5 mps 752 mmHg 71%
18:00 +6°C° 0 mm 5 mps 752 mmHg 75%
19:00 +5°C° 0 mm 5 mps 753 mmHg 79%
20:00 +5°C° 0 mm 5 mps 753 mmHg 80%
21:00 +4°C° 0 mm 4 mps 753 mmHg 81%
22:00 +4°C° 0 mm 4 mps 753 mmHg 82%
23:00 +4°C° 0 mm 4 mps 753 mmHg 82%

7 Agosto, Viernes

Tiempo Temperatura Precipitaciones Viento Presión Humedad
00:00 +3°C° 0 mm 4 mps 753 mmHg 82%
01:00 +3°C° 0 mm 4 mps 752 mmHg 82%
02:00 +3°C° 0 mm 4 mps 752 mmHg 82%
03:00 +3°C° 0 mm 4 mps 752 mmHg 82%
04:00 +3°C° 0 mm 4 mps 752 mmHg 82%
05:00 +3°C° 0 mm 4 mps 752 mmHg 82%
06:00 +1°C° 0 mm 4 mps 752 mmHg 82%
07:00 +2°C° 0 mm 3 mps 752 mmHg 82%
08:00 +4°C° 0 mm 4 mps 752 mmHg 76%
09:00 +5°C° 0 mm 4 mps 752 mmHg 71%
10:00 +7°C° 0 mm 4 mps 752 mmHg 65%
11:00 +9°C° 0 mm 3 mps 752 mmHg 62%
12:00 +10°C° 0 mm 3 mps 751 mmHg 60%
13:00 +12°C° 0 mm 3 mps 751 mmHg 57%
14:00 +11°C° 0 mm 3 mps 751 mmHg 61%
15:00 +12°C° 0 mm 2 mps 751 mmHg 65%
16:00 +12°C° 0 mm 2 mps 750 mmHg 69%
17:00 +9°C° 0 mm 2 mps 751 mmHg 75%
18:00 +9°C° 0 mm 1 mps 751 mmHg 81%
19:00 +7°C° 0 mm 1 mps 751 mmHg 87%
20:00 +7°C° 0 mm 1 mps 751 mmHg 88%
21:00 +6°C° 0 mm 1 mps 751 mmHg 90%
22:00 +6°C° 0 mm 1 mps 751 mmHg 91%
23:00 +6°C° 0 mm 1 mps 751 mmHg 90%

8 Agosto, Sábado

Tiempo Temperatura Precipitaciones Viento Presión Humedad
00:00 +6°C° 0 mm 1 mps 751 mmHg 89%
01:00 +6°C° 0 mm 1 mps 750 mmHg 88%
02:00 +6°C° 0 mm 1 mps 750 mmHg 87%
03:00 +5°C° 0 mm 0 mps 750 mmHg 86%
04:00 +5°C° 0 mm 0 mps 750 mmHg 85%
05:00 +5°C° 0 mm 0 mps 750 mmHg 85%
06:00 +4°C° 0 mm 0 mps 750 mmHg 85%
07:00 +4°C° 0 mm 0 mps 750 mmHg 85%
08:00 +6°C° 0 mm 0 mps 750 mmHg 79%
09:00 +8°C° 0 mm 0 mps 750 mmHg 74%
10:00 +11°C° 0 mm 1 mps 750 mmHg 68%
11:00 +12°C° 0 mm 1 mps 750 mmHg 66%
12:00 +13°C° 0 mm 1 mps 750 mmHg 64%
13:00 +13°C° 0 mm 1 mps 749 mmHg 63%
14:00 +13°C° 0 mm 1 mps 749 mmHg 65%
15:00 +13°C° 0 mm 1 mps 749 mmHg 68%
16:00 +13°C° 0 mm 1 mps 749 mmHg 70%
17:00 +12°C° 0 mm 2 mps 749 mmHg 73%
18:00 +10°C° 0 mm 2 mps 750 mmHg 76%
19:00 +9°C° 0 mm 2 mps 750 mmHg 79%
20:00 +9°C° 0.4 mm 2 mps 750 mmHg 85%
21:00 +8°C° 0.4 mm 2 mps 750 mmHg 90%
22:00 +9°C° 0.4 mm 1 mps 750 mmHg 95%
23:00 +8°C° 0.2 mm 2 mps 750 mmHg 94%

9 Agosto, Domingo

Tiempo Temperatura Precipitaciones Viento Presión Humedad
00:00 +8°C° 0.2 mm 2 mps 750 mmHg 94%
01:00 +8°C° 0.2 mm 2 mps 750 mmHg 93%
02:00 +8°C° 0.2 mm 2 mps 750 mmHg 93%
03:00 +8°C° 0.2 mm 2 mps 750 mmHg 92%
04:00 +8°C° 0.2 mm 2 mps 750 mmHg 91%
05:00 +8°C° 0.3 mm 3 mps 751 mmHg 92%
06:00 +8°C° 0.3 mm 3 mps 751 mmHg 93%
07:00 +8°C° 0.3 mm 3 mps 751 mmHg 93%
08:00 +9°C° 0.2 mm 3 mps 751 mmHg 93%
09:00 +9°C° 0.2 mm 3 mps 752 mmHg 93%
10:00 +10°C° 0.2 mm 3 mps 752 mmHg 92%
11:00 +10°C° 0.1 mm 3 mps 752 mmHg 87%
12:00 +11°C° 0.1 mm 3 mps 752 mmHg 82%
13:00 +11°C° 0.1 mm 3 mps 751 mmHg 76%
14:00 +11°C° 0 mm 3 mps 752 mmHg 74%
15:00 +12°C° 0 mm 2 mps 752 mmHg 72%
16:00 +12°C° 0 mm 2 mps 752 mmHg 70%
17:00 +9°C° 0 mm 2 mps 752 mmHg 77%
18:00 +9°C° 0 mm 1 mps 752 mmHg 83%
19:00 +7°C° 0 mm 1 mps 753 mmHg 90%
20:00 +7°C° 0 mm 1 mps 753 mmHg 91%
21:00 +6°C° 0 mm 1 mps 753 mmHg 92%
22:00 +6°C° 0 mm 1 mps 753 mmHg 93%
23:00 +5°C° 0 mm 1 mps 753 mmHg 94%
Mostrar más